{"data":{"norad_id":61717,"epoch":"2026-09-21T07:16:56.594784Z","epoch_age_seconds":119432,"freshness":"FRESH","line1":"1 61717U 24196L   26264.30343281  .00000603  00000+0  28993-4 0  9991","line2":"2 61717  53.1599 270.0593 0001640  88.3029 271.8162 15.34394646107148","mean_motion":15.34394646,"eccentricity":0.000164,"inclination_deg":53.1599,"raan_deg":270.0593,"arg_perigee_deg":88.3029,"mean_anomaly_deg":271.8162,"bstar":2.8993e-5,"rev_number":10714,"period_min":93.848085546565,"perigee_km":461.59725306051,"apogee_km":463.84105387885,"semimajor_km":6840.8561534697,"source":"CELESTRAK","updated_at":"2026-09-22T09:00:49.411783Z"}}